SCP
0 0 0 0 0 0 0 0 0 0 0 0 0 0 0 0 0 0 0 0 0 0
0 0 0 0 0 0 0 0 0 0 0 0 0 0 0 0 0 0 0 0 0 0
0 0 0 0 0 0 0 0 0 0 0 0 0 0 0 0 0 0 0 0 0 0
0 0 0 0 0 0 0 0 0 0 0 0 0 0 0 0 0 0 0 0 0 0
0 0 0 0 0 0 0 0 0 0 0 0 0 0 0 0 0 0 0 0 0 0
0 0 0 0 0 0 0 0 0 0 0 0 0 0 0 0 0 0 0 0 0 0
0 0 0 0 0 0 0 0 0 0 0 0 0 0 0 0 0 0 0 0 0 0
0 0 0 0 0 0 0 0 0 0 0 0 0 0 0 0 0 0 0 0 0 0
0 0 0 0 0 0 0 0 0 0 0 0 0 0 0 0 0 0 0 0 0 0
0 0 0 0 0 0 0 0 0 0 0 0 0 0 0 0 0 0 0 0 0 0
0 0 0 0 0 0 0 0 0 0 0 0 0 0 0 0 0 0 0 0 0 0
0 0 0 0 0 0 0 0 0 0 0 0 0 0 0 0 0 0 0 0 0 0
0 0 0 0 0 0 0 0 0 0 0 0 0 0 0 0 0 0 0 0 0 0
0 0 0 0 0 0 0 0 0 0 0 0 0 0 0 0 0 0 0 0 0 0
Wind_Speed_500mb
33 30 28 30 28 26 24 23 27 27 25 23 21 20 20 17 16 16 14 15 16 17
35 28 27 27 25 24 21 22 24 25 24 22 20 17 14 12 12 13 10 10 13 16
29 29 28 26 26 23 22 21 20 20 19 15 7 3 2 1 4 4 1 6 12 9
22 23 23 20 18 18 17 15 15 10 4 5 5 4 5 7 9 6 3 5 9 13
23 22 19 14 12 12 11 7 4 1 5 6 8 12 7 10 10 4 5 11 10 17
25 19 15 11 11 10 6 3 3 6 9 12 14 14 14 16 17 16 12 14 18 24
28 22 16 12 11 8 7 6 7 10 12 15 17 15 14 19 28 33 31 29 30 31
26 21 17 14 11 10 12 13 15 15 15 16 17 17 13 21 30 33 36 36 37 33
27 25 20 14 13 15 18 18 17 21 22 20 20 19 11 16 20 24 29 34 38 33
29 25 21 19 20 19 18 17 19 23 26 24 19 13 8 6 11 13 17 25 34 34
25 24 24 23 21 20 20 21 24 26 27 29 30 27 16 5 8 6 9 16 28 28
24 25 29 28 23 21 23 21 21 22 20 20 23 26 31 24 15 2 4 10 21 13
25 27 29 28 26 25 20 15 12 14 16 10 8 13 21 28 21 3 1 7 12 11
25 28 28 24 22 23 20 17 15 14 9 6 4 1 8 16 17 17 14 11 15 3
Wind_Direction_500mb
207 206 219 220 223 230 243 255 263 275 281 286 290 291 288 282 280 289 287 269 265 265
218 217 209 210 222 228 238 260 276 277 282 293 304 308 291 276 278 290 312 309 296 278
219 208 211 215 220 233 252 265 270 280 294 306 322 309 274 193 152 149 35 334 321 326
204 205 216 212 226 238 251 264 275 293 324 358 42 121 146 129 135 197 300 343 335 337
213 207 212 231 243 263 271 271 288 35 42 74 100 115 108 96 103 75 354 26 13 1
212 224 239 245 267 273 267 218 135 78 66 89 116 112 89 78 60 43 28 21 28 32
216 223 240 259 271 239 204 185 140 109 84 97 112 102 83 69 59 56 59 58 42 37
216 229 242 243 214 172 154 133 107 94 93 104 110 98 79 74 75 59 56 51 42 41
220 235 242 221 186 162 148 138 119 95 90 98 101 96 75 65 76 61 48 45 41 46
220 222 209 197 175 163 148 137 126 104 93 90 93 82 52 28 35 65 52 41 35 45
214 204 193 184 174 159 142 121 110 116 104 87 78 65 56 358 321 33 76 45 36 45
208 201 190 177 171 158 147 138 124 129 104 95 78 65 51 34 29 135 76 56 35 33
201 200 188 178 169 166 156 147 135 136 147 129 83 49 42 40 38 349 337 359 5 5
192 192 184 175 177 173 168 167 156 146 173 207 189 275 2 23 32 32 20 351 353 321
Wind_Speed_850mb
33 30 28 30 28 26 24 23 27 27 25 23 21 20 20 17 16 16 14 15 16 17
35 28 27 27 25 24 21 22 24 25 24 22 20 17 14 12 12 13 10 10 13 16
29 29 28 26 26 23 22 21 20 20 19 15 7 3 2 1 4 4 1 6 12 9
22 23 23 20 18 18 17 15 15 10 4 5 5 4 5 7 9 6 3 5 9 13
23 22 19 14 12 12 11 7 4 1 5 6 8 12 7 10 10 4 5 11 10 17
25 19 15 11 11 10 6 3 3 6 9 12 14 14 14 16 17 16 12 14 18 24
28 22 16 12 11 8 7 6 7 10 12 15 17 15 14 19 28 33 31 29 30 31
26 21 17 14 11 10 12 13 15 15 15 16 17 17 13 21 30 33 36 36 37 33
27 25 20 14 13 15 18 18 17 21 22 20 20 19 11 16 20 24 29 34 38 33
29 25 21 19 20 19 18 17 19 23 26 24 19 13 8 6 11 13 17 25 34 34
25 24 24 23 21 20 20 21 24 26 27 29 30 27 16 5 8 6 9 16 28 28
24 25 29 28 23 21 23 21 21 22 20 20 23 26 31 24 15 2 4 10 21 13
25 27 29 28 26 25 20 15 12 14 16 10 8 13 21 28 21 3 1 7 12 11
25 28 28 24 22 23 20 17 15 14 9 6 4 1 8 16 17 17 14 11 15 3
Wind_Direction_850mb
207 206 219 220 223 230 243 255 263 275 281 286 290 291 288 282 280 289 287 269 265 265
218 217 209 210 222 228 238 260 276 277 282 293 304 308 291 276 278 290 312 309 296 278
219 208 211 215 220 233 252 265 270 280 294 306 322 309 274 193 152 149 35 334 321 326
204 205 216 212 226 238 251 264 275 293 324 358 42 121 146 129 135 197 300 343 335 337
213 207 212 231 243 263 271 271 288 35 42 74 100 115 108 96 103 75 354 26 13 1
212 224 239 245 267 273 267 218 135 78 66 89 116 112 89 78 60 43 28 21 28 32
216 223 240 259 271 239 204 185 140 109 84 97 112 102 83 69 59 56 59 58 42 37
216 229 242 243 214 172 154 133 107 94 93 104 110 98 79 74 75 59 56 51 42 41
220 235 242 221 186 162 148 138 119 95 90 98 101 96 75 65 76 61 48 45 41 46
220 222 209 197 175 163 148 137 126 104 93 90 93 82 52 28 35 65 52 41 35 45
214 204 193 184 174 159 142 121 110 116 104 87 78 65 56 358 321 33 76 45 36 45
208 201 190 177 171 158 147 138 124 129 104 95 78 65 51 34 29 135 76 56 35 33
201 200 188 178 169 166 156 147 135 136 147 129 83 49 42 40 38 349 337 359 5 5
192 192 184 175 177 173 168 167 156 146 173 207 189 275 2 23 32 32 20 351 353 321